Time,TemperatureF,DewpointF,PressureIn,WindDirection,WindDirectionDegrees,WindSpeedMPH,WindSpeedGustMPH,Humidity,HourlyPrecipIn,Conditions,Clouds,dailyrainin,SoftwareType,DateUTC
2013-08-31 00:01:00,80.4,74.8,29.83,South,180,1.0,2.0,83,0.00,,,0.00,meteohub,2013-08-31 04:01:00,
2013-08-31 00:02:00,80.4,74.8,29.84,South,180,1.0,2.0,83,0.00,,,0.00,meteohub,2013-08-31 04:02:00,
2013-08-31 00:03:00,80.4,74.8,29.84,SE,135,1.0,2.0,83,0.00,,,0.00,meteohub,2013-08-31 04:03:00,
2013-08-31 00:04:00,80.4,74.8,29.84,South,180,1.0,2.0,83,0.00,,,0.00,meteohub,2013-08-31 04:04:00,
2013-08-31 00:05:00,80.4,74.8,29.84,South,180,1.0,2.0,83,0.00,,,0.00,meteohub,2013-08-31 04:05:00,
2013-08-31 00:10:00,80.2,74.7,29.84,South,180,1.0,2.0,83,0.00,,,0.00,meteohub,2013-08-31 04:10:00,
2013-08-31 00:15:00,80.2,75.0,29.84,South,180,1.0,2.0,84,0.00,,,0.00,meteohub,2013-08-31 04:15:00,
2013-08-31 00:20:00,80.1,74.8,29.84,South,180,1.0,2.0,84,0.00,,,0.00,meteohub,2013-08-31 04:20:00,
2013-08-31 00:25:00,80.1,75.2,29.84,South,180,2.0,2.0,85,0.00,,,0.00,meteohub,2013-08-31 04:25:00,
2013-08-31 00:30:00,80.2,75.0,29.84,SE,135,1.0,2.0,84,0.00,,,0.00,meteohub,2013-08-31 04:30:00,
2013-08-31 00:35:00,80.2,75.4,29.84,South,180,2.0,2.0,85,0.00,,,0.00,meteohub,2013-08-31 04:35:00,
2013-08-31 00:40:00,80.1,75.2,29.84,West,270,2.0,3.0,85,0.00,,,0.00,meteohub,2013-08-31 04:40:00,
2013-08-31 00:45:00,80.1,75.2,29.84,South,180,1.0,3.0,85,0.00,,,0.00,meteohub,2013-08-31 04:45:00,
2013-08-31 00:50:00,80.1,75.6,29.84,South,180,0.0,2.0,86,0.00,,,0.00,meteohub,2013-08-31 04:50:00,
2013-08-31 00:56:00,79.9,75.4,29.84,South,180,1.0,2.0,86,0.00,,,0.00,meteohub,2013-08-31 04:56:00,
2013-08-31 01:01:00,79.7,75.2,29.84,SW,225,1.0,2.0,86,0.00,,,0.00,meteohub,2013-08-31 05:01:00,
2013-08-31 01:06:00,79.7,75.2,29.84,SW,225,0.0,2.0,86,0.00,,,0.00,meteohub,2013-08-31 05:06:00,
2013-08-31 01:11:00,79.5,75.4,29.84,South,180,1.0,1.0,87,0.00,,,0.00,meteohub,2013-08-31 05:11:00,
2013-08-31 01:16:00,79.3,75.6,29.83,South,180,0.0,1.0,88,0.00,,,0.00,meteohub,2013-08-31 05:16:00,
2013-08-31 01:21:00,79.3,75.6,29.83,South,180,0.0,1.0,88,0.00,,,0.00,meteohub,2013-08-31 05:21:00,
2013-08-31 01:26:00,79.2,75.6,29.83,South,180,1.0,1.0,89,0.00,,,0.00,meteohub,2013-08-31 05:26:00,
2013-08-31 01:31:00,79.2,75.6,29.83,South,180,1.0,1.0,89,0.00,,,0.00,meteohub,2013-08-31 05:31:00,
2013-08-31 01:36:00,79.0,75.4,29.83,South,180,1.0,1.0,89,0.00,,,0.00,meteohub,2013-08-31 05:36:00,
2013-08-31 01:41:00,79.2,75.6,29.84,South,180,1.0,1.0,89,0.00,,,0.00,meteohub,2013-08-31 05:41:00,
2013-08-31 01:46:00,79.2,75.6,29.83,SW,225,0.0,1.0,89,0.00,,,0.00,meteohub,2013-08-31 05:46:00,
2013-08-31 01:52:00,79.0,75.4,29.83,SW,225,0.0,1.0,89,0.00,,,0.00,meteohub,2013-08-31 05:52:00,
2013-08-31 01:57:00,79.0,75.7,29.83,SW,225,0.0,1.0,90,0.00,,,0.00,meteohub,2013-08-31 05:57:00,
2013-08-31 02:02:00,79.3,76.1,29.83,South,180,0.0,1.0,90,0.00,,,0.00,meteohub,2013-08-31 06:02:00,
2013-08-31 02:07:00,79.3,76.1,29.83,SW,225,1.0,1.0,90,0.00,,,0.00,meteohub,2013-08-31 06:07:00,
2013-08-31 02:12:00,79.5,76.3,29.83,SW,225,1.0,2.0,90,0.00,,,0.00,meteohub,2013-08-31 06:12:00,
2013-08-31 02:17:00,79.5,76.3,29.83,SW,225,1.0,2.0,90,0.00,,,0.00,meteohub,2013-08-31 06:17:00,
2013-08-31 02:22:00,79.7,76.8,29.83,SW,225,1.0,2.0,91,0.00,,,0.00,meteohub,2013-08-31 06:22:00,
2013-08-31 02:27:00,79.7,76.8,29.83,South,180,2.0,2.0,91,0.00,,,0.00,meteohub,2013-08-31 06:27:00,
2013-08-31 02:32:00,79.7,76.8,29.83,South,180,2.0,2.0,91,0.00,,,0.00,meteohub,2013-08-31 06:32:00,
2013-08-31 02:37:00,79.7,77.2,29.82,South,180,2.0,2.0,92,0.00,,,0.00,meteohub,2013-08-31 06:37:00,
2013-08-31 02:42:00,79.7,77.5,29.82,West,270,1.0,2.0,93,0.00,,,0.00,meteohub,2013-08-31 06:42:00,
2013-08-31 02:47:00,79.7,77.5,29.82,SW,225,2.0,2.0,93,0.00,,,0.00,meteohub,2013-08-31 06:47:00,
2013-08-31 02:52:00,79.7,77.9,29.82,SW,225,1.0,2.0,94,0.00,,,0.00,meteohub,2013-08-31 06:52:00,
2013-08-31 02:57:00,79.7,77.9,29.82,SW,225,2.0,2.0,94,0.00,,,0.00,meteohub,2013-08-31 06:57:00,
2013-08-31 03:02:00,79.5,77.7,29.81,South,180,1.0,2.0,94,0.00,,,0.00,meteohub,2013-08-31 07:02:00,
2013-08-31 03:07:00,79.3,77.7,29.81,South,180,2.0,2.0,95,0.00,,,0.00,meteohub,2013-08-31 07:07:00,
2013-08-31 03:12:00,79.5,77.9,29.82,South,180,0.0,2.0,95,0.00,,,0.00,meteohub,2013-08-31 07:12:00,
2013-08-31 03:17:00,79.2,77.5,29.82,SW,225,0.0,2.0,95,0.00,,,0.00,meteohub,2013-08-31 07:17:00,
2013-08-31 03:22:00,79.2,77.9,29.82,SW,225,0.0,2.0,96,0.00,,,0.00,meteohub,2013-08-31 07:22:00,
2013-08-31 03:27:00,79.2,77.9,29.82,SW,225,0.0,1.0,96,0.00,,,0.00,meteohub,2013-08-31 07:27:00,
2013-08-31 03:32:00,79.2,78.3,29.81,SW,225,2.0,2.0,97,0.00,,,0.00,meteohub,2013-08-31 07:32:00,
2013-08-31 03:37:00,79.0,78.1,29.81,SW,225,1.0,2.0,97,0.00,,,0.00,meteohub,2013-08-31 07:37:00,
2013-08-31 03:42:00,78.8,77.9,29.81,SW,225,0.0,2.0,97,0.00,,,0.00,meteohub,2013-08-31 07:42:00,
2013-08-31 03:47:00,78.6,77.7,29.81,SW,225,0.0,2.0,97,0.00,,,0.00,meteohub,2013-08-31 07:47:00,
2013-08-31 03:52:00,78.4,78.1,29.81,SW,225,0.0,1.0,99,0.00,,,0.00,meteohub,2013-08-31 07:52:00,
2013-08-31 03:57:00,78.3,77.9,29.81,South,180,0.0,1.0,99,0.00,,,0.00,meteohub,2013-08-31 07:57:00,
2013-08-31 04:02:00,78.3,77.9,29.82,SW,225,0.0,1.0,99,0.00,,,0.00,meteohub,2013-08-31 08:02:00,
2013-08-31 04:07:00,78.1,77.7,29.81,West,270,0.0,1.0,99,0.00,,,0.00,meteohub,2013-08-31 08:07:00,
2013-08-31 04:12:00,77.9,77.5,29.81,West,270,0.0,1.0,99,0.00,,,0.00,meteohub,2013-08-31 08:12:00,
2013-08-31 04:17:00,77.7,77.4,29.81,West,270,0.0,1.0,99,0.00,,,0.00,meteohub,2013-08-31 08:17:00,
2013-08-31 04:22:00,77.5,77.2,29.81,West,270,0.0,1.0,99,0.00,,,0.00,meteohub,2013-08-31 08:22:00,
2013-08-31 04:27:00,77.5,77.2,29.81,West,270,0.0,1.0,99,0.00,,,0.00,meteohub,2013-08-31 08:27:00,
2013-08-31 04:32:00,77.5,77.2,29.81,West,270,0.0,1.0,99,0.00,,,0.00,meteohub,2013-08-31 08:32:00,
2013-08-31 04:37:00,77.4,77.0,29.81,SE,135,1.0,0.0,99,0.00,,,0.00,meteohub,2013-08-31 08:37:00,
2013-08-31 04:42:00,77.4,77.0,29.81,SE,135,0.0,1.0,99,0.00,,,0.00,meteohub,2013-08-31 08:42:00,
2013-08-31 04:47:00,77.4,77.0,29.81,SE,135,0.0,1.0,99,0.00,,,0.00,meteohub,2013-08-31 08:47:00,
2013-08-31 04:52:00,77.2,76.8,29.81,SE,135,0.0,1.0,99,0.00,,,0.00,meteohub,2013-08-31 08:52:00,
2013-08-31 04:57:00,77.2,76.8,29.81,SE,135,0.0,0.0,99,0.00,,,0.00,meteohub,2013-08-31 08:57:00,
2013-08-31 05:02:00,77.0,76.6,29.80,SE,135,0.0,0.0,99,0.00,,,0.00,meteohub,2013-08-31 09:02:00,
2013-08-31 05:07:00,77.0,76.6,29.80,SE,135,1.0,0.0,99,0.00,,,0.00,meteohub,2013-08-31 09:07:00,
2013-08-31 05:12:00,77.2,76.8,29.80,SE,135,0.0,2.0,99,0.00,,,0.00,meteohub,2013-08-31 09:12:00,
2013-08-31 05:17:00,77.4,77.0,29.80,SE,135,0.0,2.0,99,0.00,,,0.00,meteohub,2013-08-31 09:17:00,
2013-08-31 05:22:00,77.2,76.8,29.80,SE,135,0.0,2.0,99,0.00,,,0.00,meteohub,2013-08-31 09:22:00,
2013-08-31 05:27:00,77.2,76.8,29.81,SE,135,1.0,1.0,99,0.00,,,0.00,meteohub,2013-08-31 09:27:00,
2013-08-31 05:32:00,77.2,76.8,29.81,SE,135,0.0,1.0,99,0.00,,,0.00,meteohub,2013-08-31 09:32:00,
2013-08-31 05:37:00,77.2,76.8,29.81,South,180,0.0,1.0,99,0.00,,,0.00,meteohub,2013-08-31 09:37:00,
2013-08-31 05:42:00,77.0,76.6,29.81,South,180,0.0,1.0,99,0.00,,,0.00,meteohub,2013-08-31 09:42:00,
2013-08-31 05:47:00,77.2,76.8,29.81,East,90,2.0,2.0,99,0.00,,,0.00,meteohub,2013-08-31 09:47:00,
2013-08-31 05:52:00,77.5,77.2,29.81,South,180,1.0,2.0,99,0.00,,,0.00,meteohub,2013-08-31 09:52:00,
2013-08-31 05:57:00,77.7,77.4,29.81,South,180,0.0,2.0,99,0.00,,,0.00,meteohub,2013-08-31 09:57:00,
2013-08-31 06:02:00,77.7,77.4,29.81,South,180,0.0,2.0,99,0.00,,,0.00,meteohub,2013-08-31 10:02:00,
2013-08-31 06:07:00,77.5,77.2,29.81,South,180,0.0,2.0,99,0.00,,,0.00,meteohub,2013-08-31 10:07:00,
2013-08-31 06:12:00,77.5,77.2,29.81,SW,225,0.0,2.0,99,0.00,,,0.00,meteohub,2013-08-31 10:12:00,
2013-08-31 06:17:00,77.5,77.2,29.82,South,180,0.0,2.0,99,0.00,,,0.00,meteohub,2013-08-31 10:17:00,
2013-08-31 06:22:00,77.4,77.0,29.82,SE,135,0.0,2.0,99,0.00,,,0.00,meteohub,2013-08-31 10:22:00,
2013-08-31 06:27:00,77.4,77.0,29.82,South,180,1.0,1.0,99,0.00,,,0.00,meteohub,2013-08-31 10:27:00,
2013-08-31 06:32:00,77.4,77.0,29.82,South,180,0.0,1.0,99,0.00,,,0.00,meteohub,2013-08-31 10:32:00,
2013-08-31 06:37:00,77.2,76.8,29.82,SW,225,1.0,1.0,99,0.00,,,0.00,meteohub,2013-08-31 10:37:00,
2013-08-31 06:42:00,77.0,76.6,29.82,SW,225,0.0,1.0,99,0.00,,,0.00,meteohub,2013-08-31 10:42:00,
2013-08-31 06:47:00,77.0,76.6,29.83,South,180,1.0,1.0,99,0.00,,,0.00,meteohub,2013-08-31 10:47:00,
2013-08-31 06:53:00,77.0,76.6,29.82,South,180,1.0,1.0,99,0.00,,,0.00,meteohub,2013-08-31 10:53:00,
2013-08-31 06:58:00,77.0,76.6,29.82,SW,225,0.0,1.0,99,0.00,,,0.00,meteohub,2013-08-31 10:58:00,
2013-08-31 07:03:00,77.0,76.6,29.83,SW,225,0.0,1.0,99,0.00,,,0.00,meteohub,2013-08-31 11:03:00,
2013-08-31 07:08:00,77.0,76.6,29.83,South,180,0.0,1.0,99,0.00,,,0.00,meteohub,2013-08-31 11:08:00,
2013-08-31 07:13:00,77.2,76.8,29.82,SW,225,0.0,1.0,99,0.00,,,0.00,meteohub,2013-08-31 11:13:00,
2013-08-31 07:18:00,78.1,77.7,29.82,SE,135,1.0,0.0,99,0.00,,,0.00,meteohub,2013-08-31 11:18:00,
2013-08-31 07:23:00,79.0,78.6,29.83,South,180,0.0,0.0,99,0.00,,,0.00,meteohub,2013-08-31 11:23:00,
2013-08-31 07:28:00,80.1,79.7,29.83,South,180,0.0,1.0,99,0.00,,,0.00,meteohub,2013-08-31 11:28:00,
2013-08-31 07:33:00,81.3,81.0,29.83,South,180,0.0,1.0,99,0.00,,,0.00,meteohub,2013-08-31 11:33:00,
2013-08-31 07:38:00,81.0,80.6,29.84,South,180,1.0,1.0,99,0.00,,,0.00,meteohub,2013-08-31 11:38:00,
2013-08-31 07:44:00,80.4,80.1,29.83,SW,225,0.0,1.0,99,0.00,,,0.00,meteohub,2013-08-31 11:44:00,
2013-08-31 07:49:00,81.5,81.1,29.83,SW,225,0.0,1.0,99,0.00,,,0.00,meteohub,2013-08-31 11:49:00,
2013-08-31 07:54:00,83.5,83.1,29.83,South,180,1.0,1.0,99,0.00,,,0.00,meteohub,2013-08-31 11:54:00,
2013-08-31 07:59:00,85.6,83.3,29.84,SE,135,1.0,1.0,93,0.00,,,0.00,meteohub,2013-08-31 11:59:00,
2013-08-31 08:04:00,86.2,81.9,29.84,South,180,0.0,2.0,87,0.00,,,0.00,meteohub,2013-08-31 12:04:00,
2013-08-31 08:09:00,86.0,81.0,29.84,South,180,1.0,2.0,85,0.00,,,0.00,meteohub,2013-08-31 12:09:00,
2013-08-31 08:14:00,85.6,80.2,29.84,SW,225,1.0,2.0,84,0.00,,,0.00,meteohub,2013-08-31 12:14:00,
2013-08-31 08:19:00,86.9,81.5,29.84,SW,225,1.0,1.0,84,0.00,,,0.00,meteohub,2013-08-31 12:19:00,
2013-08-31 08:24:00,87.8,80.8,29.84,South,180,2.0,2.0,80,0.00,,,0.00,meteohub,2013-08-31 12:24:00,
2013-08-31 08:29:00,88.3,80.6,29.84,South,180,3.0,3.0,78,0.00,,,0.00,meteohub,2013-08-31 12:29:00,
2013-08-31 08:34:00,87.8,80.1,29.84,South,180,2.0,2.0,78,0.00,,,0.00,meteohub,2013-08-31 12:34:00,
2013-08-31 08:40:00,88.5,80.8,29.85,SW,225,2.0,3.0,78,0.00,,,0.00,meteohub,2013-08-31 12:40:00,
2013-08-31 08:45:00,89.4,81.3,29.85,SW,225,1.0,3.0,77,0.00,,,0.00,meteohub,2013-08-31 12:45:00,
2013-08-31 08:50:00,89.4,80.8,29.84,South,180,2.0,3.0,76,0.00,,,0.00,meteohub,2013-08-31 12:50:00,
2013-08-31 08:55:00,89.1,80.4,29.85,South,180,3.0,3.0,76,0.00,,,0.00,meteohub,2013-08-31 12:55:00,
2013-08-31 09:00:00,88.0,80.2,29.85,South,180,2.0,4.0,78,0.00,,,0.00,meteohub,2013-08-31 13:00:00,
2013-08-31 09:05:00,87.8,80.4,29.85,South,180,2.0,4.0,79,0.00,,,0.00,meteohub,2013-08-31 13:05:00,
2013-08-31 09:10:00,89.1,81.0,29.85,SE,135,2.0,4.0,77,0.00,,,0.00,meteohub,2013-08-31 13:10:00,
2013-08-31 09:15:00,90.1,80.2,29.85,East,90,3.0,4.0,73,0.00,,,0.00,meteohub,2013-08-31 13:15:00,
2013-08-31 09:20:00,89.8,79.9,29.85,SW,225,3.0,5.0,73,0.00,,,0.00,meteohub,2013-08-31 13:20:00,
2013-08-31 09:25:00,89.4,80.1,29.86,SW,225,4.0,5.0,74,0.00,,,0.00,meteohub,2013-08-31 13:25:00,
2013-08-31 09:31:00,88.5,79.2,29.85,East,90,2.0,6.0,74,0.00,,,0.00,meteohub,2013-08-31 13:31:00,
2013-08-31 09:36:00,88.9,79.5,29.85,South,180,3.0,6.0,74,0.00,,,0.00,meteohub,2013-08-31 13:36:00,
2013-08-31 09:41:00,88.7,79.3,29.85,South,180,2.0,5.0,74,0.00,,,0.00,meteohub,2013-08-31 13:41:00,
2013-08-31 09:46:00,90.0,80.1,29.86,SW,225,2.0,5.0,73,0.00,,,0.00,meteohub,2013-08-31 13:46:00,
2013-08-31 09:51:00,90.9,80.1,29.85,SW,225,3.0,4.0,71,0.00,,,0.00,meteohub,2013-08-31 13:51:00,
2013-08-31 09:56:00,91.2,79.7,29.85,SW,225,2.0,4.0,69,0.00,,,0.00,meteohub,2013-08-31 13:56:00,
2013-08-31 10:01:00,90.3,78.3,29.85,East,90,4.0,4.0,68,0.00,,,0.00,meteohub,2013-08-31 14:01:00,
2013-08-31 10:06:00,89.8,79.2,29.86,SE,135,2.0,4.0,71,0.00,,,0.00,meteohub,2013-08-31 14:06:00,
2013-08-31 10:11:00,90.0,78.8,29.85,South,180,3.0,4.0,70,0.00,,,0.00,meteohub,2013-08-31 14:11:00,
2013-08-31 10:16:00,90.3,77.9,29.86,SW,225,3.0,5.0,67,0.00,,,0.00,meteohub,2013-08-31 14:16:00,
2013-08-31 10:21:00,91.4,78.4,29.86,South,180,2.0,5.0,66,0.00,,,0.00,meteohub,2013-08-31 14:21:00,
2013-08-31 10:26:00,90.5,77.2,29.85,South,180,4.0,5.0,65,0.00,,,0.00,meteohub,2013-08-31 14:26:00,
2013-08-31 10:32:00,89.8,77.4,29.86,SW,225,3.0,5.0,67,0.00,,,0.00,meteohub,2013-08-31 14:32:00,
2013-08-31 10:37:00,89.6,77.5,29.86,South,180,4.0,5.0,68,0.00,,,0.00,meteohub,2013-08-31 14:37:00,
2013-08-31 10:42:00,89.2,77.7,29.86,SE,135,1.0,5.0,69,0.00,,,0.00,meteohub,2013-08-31 14:42:00,
2013-08-31 10:47:00,90.3,77.9,29.86,SW,225,3.0,4.0,67,0.00,,,0.00,meteohub,2013-08-31 14:47:00,
2013-08-31 10:52:00,90.9,77.5,29.86,SSW,203,2.0,4.0,65,0.00,,,0.00,meteohub,2013-08-31 14:52:00,
2013-08-31 10:57:00,91.0,77.2,29.86,SW,225,4.0,4.0,64,0.00,,,0.00,meteohub,2013-08-31 14:57:00,
2013-08-31 11:02:00,90.7,76.8,29.86,West,270,2.0,4.0,64,0.00,,,0.00,meteohub,2013-08-31 15:02:00,
2013-08-31 11:07:00,91.0,77.2,29.86,South,180,2.0,4.0,64,0.00,,,0.00,meteohub,2013-08-31 15:07:00,
2013-08-31 11:12:00,91.9,76.6,29.86,SW,225,4.0,4.0,61,0.00,,,0.00,meteohub,2013-08-31 15:12:00,
2013-08-31 11:17:00,92.3,76.5,29.86,South,180,2.0,4.0,60,0.00,,,0.00,meteohub,2013-08-31 15:17:00,
2013-08-31 11:22:00,92.3,76.5,29.86,SW,225,4.0,5.0,60,0.00,,,0.00,meteohub,2013-08-31 15:22:00,
2013-08-31 11:27:00,92.8,77.4,29.86,NE,45,2.0,5.0,61,0.00,,,0.00,meteohub,2013-08-31 15:27:00,
2013-08-31 11:32:00,93.4,76.5,29.86,South,180,2.0,5.0,58,0.00,,,0.00,meteohub,2013-08-31 15:32:00,
2013-08-31 11:37:00,92.7,76.8,29.86,SE,135,1.0,6.0,60,0.00,,,0.00,meteohub,2013-08-31 15:37:00,
2013-08-31 11:42:00,92.7,75.7,29.86,SW,225,4.0,6.0,58,0.00,,,0.00,meteohub,2013-08-31 15:42:00,
2013-08-31 11:47:00,91.9,76.1,29.86,South,180,2.0,6.0,60,0.00,,,0.00,meteohub,2013-08-31 15:47:00,
2013-08-31 11:52:00,93.6,77.0,29.86,SE,135,2.0,6.0,59,0.00,,,0.00,meteohub,2013-08-31 15:52:00,
2013-08-31 11:58:00,94.6,77.0,29.86,SW,225,2.0,4.0,57,0.00,,,0.00,meteohub,2013-08-31 15:58:00,
2013-08-31 12:03:00,94.1,75.9,29.85,East,90,6.0,6.0,56,0.00,,,0.00,meteohub,2013-08-31 16:03:00,
2013-08-31 12:08:00,93.7,76.3,29.85,SE,135,4.0,6.0,57,0.00,,,0.00,meteohub,2013-08-31 16:08:00,
2013-08-31 12:13:00,95.4,76.6,29.85,SW,225,0.0,6.0,55,0.00,,,0.00,meteohub,2013-08-31 16:13:00,
2013-08-31 12:18:00,95.4,76.1,29.86,South,180,4.0,6.0,54,0.00,,,0.00,meteohub,2013-08-31 16:18:00,
2013-08-31 12:23:00,93.6,75.6,29.85,South,180,2.0,4.0,56,0.00,,,0.00,meteohub,2013-08-31 16:23:00,
2013-08-31 12:28:00,91.8,74.8,29.85,SE,135,1.0,4.0,58,0.00,,,0.00,meteohub,2013-08-31 16:28:00,
2013-08-31 12:33:00,90.7,75.4,29.85,SE,135,2.0,4.0,61,0.00,,,0.00,meteohub,2013-08-31 16:33:00,
2013-08-31 12:38:00,89.4,77.5,29.85,East,90,4.0,5.0,68,0.00,,,0.00,meteohub,2013-08-31 16:38:00,
2013-08-31 12:43:00,87.8,78.8,29.85,East,90,6.0,6.0,75,0.00,,,0.00,meteohub,2013-08-31 16:43:00,
2013-08-31 12:49:00,86.7,78.6,29.85,East,90,8.0,8.0,77,0.00,,,0.00,meteohub,2013-08-31 16:49:00,
2013-08-31 12:54:00,86.0,78.8,29.85,East,90,7.0,9.0,79,0.00,,,0.00,meteohub,2013-08-31 16:54:00,
2013-08-31 12:59:00,85.6,78.4,29.85,East,90,8.0,9.0,79,0.00,,,0.00,meteohub,2013-08-31 16:59:00,
2013-08-31 13:04:00,85.5,77.7,29.85,East,90,9.0,9.0,78,0.00,,,0.00,meteohub,2013-08-31 17:04:00,
2013-08-31 13:09:00,84.7,77.5,29.84,NE,45,9.0,9.0,79,0.00,,,0.00,meteohub,2013-08-31 17:09:00,
2013-08-31 13:14:00,84.2,76.6,29.84,East,90,8.0,12.0,78,0.00,,,0.00,meteohub,2013-08-31 17:14:00,
2013-08-31 13:19:00,83.8,75.0,29.85,East,90,6.0,12.0,75,0.00,,,0.00,meteohub,2013-08-31 17:19:00,
2013-08-31 13:24:00,83.8,74.7,29.85,East,90,4.0,12.0,74,0.00,,,0.00,meteohub,2013-08-31 17:24:00,
2013-08-31 13:30:00,83.5,76.6,29.85,East,90,9.0,9.0,80,0.00,,,0.00,meteohub,2013-08-31 17:30:00,
2013-08-31 13:35:00,82.4,75.6,29.85,ESE,113,4.0,9.0,80,0.00,,,0.00,meteohub,2013-08-31 17:35:00,
2013-08-31 13:40:00,81.0,75.7,29.85,NE,45,7.0,11.0,84,0.00,,,0.00,meteohub,2013-08-31 17:40:00,
2013-08-31 13:45:00,79.7,74.1,29.86,East,90,11.0,11.0,83,0.01,,,0.01,meteohub,2013-08-31 17:45:00,
2013-08-31 13:50:00,79.3,74.1,29.85,East,90,9.0,11.0,84,0.01,,,0.01,meteohub,2013-08-31 17:50:00,
2013-08-31 13:55:00,79.5,74.7,29.85,East,90,7.0,11.0,85,0.01,,,0.01,meteohub,2013-08-31 17:55:00,
2013-08-31 14:00:00,79.3,75.6,29.85,East,90,9.0,11.0,88,0.01,,,0.01,meteohub,2013-08-31 18:00:00,
2013-08-31 14:05:00,79.5,75.6,29.83,ESE,113,4.0,11.0,88,0.01,,,0.01,meteohub,2013-08-31 18:05:00,
2013-08-31 14:10:00,80.2,74.7,29.84,East,90,6.0,11.0,83,0.01,,,0.01,meteohub,2013-08-31 18:10:00,
2013-08-31 14:15:00,80.2,75.7,29.84,East,90,7.0,10.0,86,0.01,,,0.01,meteohub,2013-08-31 18:15:00,
2013-08-31 14:21:00,79.3,76.8,29.84,SE,135,4.0,10.0,92,0.04,,,0.04,meteohub,2013-08-31 18:21:00,
2013-08-31 14:26:00,78.3,76.6,29.83,East,90,7.0,8.0,95,0.08,,,0.08,meteohub,2013-08-31 18:26:00,
2013-08-31 14:31:00,76.6,75.7,29.82,East,90,6.0,10.0,97,0.12,,,0.12,meteohub,2013-08-31 18:31:00,
2013-08-31 14:36:00,76.5,76.1,29.83,East,90,10.0,10.0,99,0.11,,,0.12,meteohub,2013-08-31 18:36:00,
2013-08-31 14:41:00,76.6,76.3,29.83,East,90,5.0,11.0,99,0.13,,,0.14,meteohub,2013-08-31 18:41:00,
2013-08-31 14:46:00,76.8,76.5,29.82,East,90,2.0,11.0,99,0.13,,,0.14,meteohub,2013-08-31 18:46:00,
2013-08-31 14:51:00,76.8,76.5,29.83,South,180,4.0,10.0,99,0.15,,,0.17,meteohub,2013-08-31 18:51:00,
2013-08-31 14:56:00,75.7,75.2,29.83,South,180,1.0,7.0,98,0.15,,,0.17,meteohub,2013-08-31 18:56:00,
2013-08-31 15:01:00,75.4,75.0,29.84,SW,225,2.0,4.0,99,0.17,,,0.18,meteohub,2013-08-31 19:01:00,
2013-08-31 15:06:00,75.4,75.0,29.83,SW,225,1.0,4.0,99,0.18,,,0.19,meteohub,2013-08-31 19:06:00,
2013-08-31 15:12:00,75.4,75.0,29.83,West,270,1.0,2.0,99,0.19,,,0.20,meteohub,2013-08-31 19:12:00,
2013-08-31 15:17:00,75.7,75.4,29.84,SW,225,2.0,2.0,99,0.19,,,0.20,meteohub,2013-08-31 19:17:00,
2013-08-31 15:22:00,75.9,75.6,29.85,South,180,2.0,4.0,99,0.15,,,0.20,meteohub,2013-08-31 19:22:00,
2013-08-31 15:27:00,75.4,75.0,29.85,West,270,15.0,15.0,99,0.11,,,0.20,meteohub,2013-08-31 19:27:00,
2013-08-31 15:32:00,74.8,74.5,29.85,SW,225,9.0,15.0,99,0.09,,,0.21,meteohub,2013-08-31 19:32:00,
2013-08-31 15:37:00,74.5,73.9,29.85,SW,225,8.0,15.0,98,0.09,,,0.21,meteohub,2013-08-31 19:37:00,
2013-08-31 15:42:00,73.8,73.4,29.85,South,180,8.0,15.0,99,0.07,,,0.21,meteohub,2013-08-31 19:42:00,
2013-08-31 15:47:00,72.9,72.5,29.84,NE,45,8.0,11.0,99,0.09,,,0.25,meteohub,2013-08-31 19:47:00,
2013-08-31 15:52:00,73.4,73.0,29.84,NW,315,4.0,13.0,99,0.12,,,0.28,meteohub,2013-08-31 19:52:00,
2013-08-31 15:57:00,72.7,72.3,29.84,North,0,3.0,13.0,99,0.15,,,0.32,meteohub,2013-08-31 19:57:00,
2013-08-31 16:02:00,71.8,71.4,29.84,West,270,2.0,11.0,99,0.17,,,0.35,meteohub,2013-08-31 20:02:00,
2013-08-31 16:07:00,71.6,71.2,29.84,South,180,5.0,9.0,99,0.20,,,0.38,meteohub,2013-08-31 20:07:00,
2013-08-31 16:12:00,71.2,70.9,29.84,South,180,2.0,9.0,99,0.19,,,0.39,meteohub,2013-08-31 20:12:00,
2013-08-31 16:17:00,71.1,70.7,29.84,SW,225,3.0,9.0,99,0.19,,,0.39,meteohub,2013-08-31 20:17:00,
2013-08-31 16:22:00,71.1,70.7,29.83,SE,135,1.0,8.0,99,0.19,,,0.39,meteohub,2013-08-31 20:22:00,
2013-08-31 16:27:00,71.1,70.7,29.83,South,180,2.0,3.0,99,0.19,,,0.39,meteohub,2013-08-31 20:27:00,
2013-08-31 16:32:00,71.1,70.7,29.82,South,180,1.0,3.0,99,0.18,,,0.39,meteohub,2013-08-31 20:32:00,
2013-08-31 16:37:00,71.2,70.9,29.82,South,180,4.0,4.0,99,0.18,,,0.39,meteohub,2013-08-31 20:37:00,
2013-08-31 16:42:00,71.2,70.9,29.83,SW,225,2.0,6.0,99,0.18,,,0.39,meteohub,2013-08-31 20:42:00,
2013-08-31 16:47:00,71.1,70.7,29.82,SW,225,2.0,6.0,99,0.13,,,0.39,meteohub,2013-08-31 20:47:00,
2013-08-31 16:52:00,71.1,70.7,29.81,South,180,4.0,6.0,99,0.09,,,0.39,meteohub,2013-08-31 20:52:00,
2013-08-31 16:57:00,71.1,70.7,29.81,South,180,2.0,5.0,99,0.07,,,0.40,meteohub,2013-08-31 20:57:00,
2013-08-31 17:02:00,71.1,70.7,29.81,South,180,0.0,4.0,99,0.04,,,0.40,meteohub,2013-08-31 21:02:00,
2013-08-31 17:07:00,71.2,70.9,29.81,West,270,0.0,4.0,99,0.01,,,0.40,meteohub,2013-08-31 21:07:00,
2013-08-31 17:12:00,71.1,70.7,29.82,SW,225,1.0,2.0,99,0.01,,,0.40,meteohub,2013-08-31 21:12:00,
2013-08-31 17:17:00,71.4,71.1,29.82,West,270,1.0,1.0,99,0.01,,,0.40,meteohub,2013-08-31 21:17:00,
2013-08-31 17:22:00,71.6,71.2,29.83,NW,315,2.0,2.0,99,0.01,,,0.40,meteohub,2013-08-31 21:22:00,
2013-08-31 17:27:00,71.6,71.2,29.83,NW,315,1.0,2.0,99,0.01,,,0.40,meteohub,2013-08-31 21:27:00,
2013-08-31 17:32:00,72.0,71.6,29.84,SW,225,1.0,2.0,99,0.01,,,0.40,meteohub,2013-08-31 21:32:00,
2013-08-31 17:37:00,72.0,71.6,29.84,North,0,2.0,2.0,99,0.01,,,0.40,meteohub,2013-08-31 21:37:00,
2013-08-31 17:42:00,72.1,71.8,29.83,West,270,1.0,2.0,99,0.01,,,0.40,meteohub,2013-08-31 21:42:00,
2013-08-31 17:47:00,72.3,72.0,29.83,North,0,1.0,2.0,99,0.02,,,0.41,meteohub,2013-08-31 21:47:00,
2013-08-31 17:52:00,72.7,72.3,29.83,NW,315,1.0,2.0,99,0.02,,,0.41,meteohub,2013-08-31 21:52:00,
2013-08-31 17:57:00,72.9,72.5,29.83,North,0,0.0,2.0,99,0.01,,,0.41,meteohub,2013-08-31 21:57:00,
2013-08-31 18:02:00,73.0,72.7,29.83,NE,45,0.0,2.0,99,0.01,,,0.41,meteohub,2013-08-31 22:02:00,
2013-08-31 18:07:00,73.2,72.9,29.83,NE,45,1.0,2.0,99,0.01,,,0.41,meteohub,2013-08-31 22:07:00,
2013-08-31 18:12:00,73.6,73.2,29.82,North,0,2.0,2.0,99,0.02,,,0.43,meteohub,2013-08-31 22:12:00,
2013-08-31 18:17:00,73.6,73.2,29.81,NW,315,1.0,2.0,99,0.02,,,0.43,meteohub,2013-08-31 22:17:00,
2013-08-31 18:22:00,73.6,73.2,29.81,South,180,1.0,2.0,99,0.02,,,0.43,meteohub,2013-08-31 22:22:00,
2013-08-31 18:27:00,73.9,73.6,29.81,East,90,2.0,2.0,99,0.02,,,0.43,meteohub,2013-08-31 22:27:00,
2013-08-31 18:32:00,74.1,73.8,29.81,SE,135,1.0,2.0,99,0.04,,,0.44,meteohub,2013-08-31 22:32:00,
2013-08-31 18:37:00,74.5,74.1,29.82,SW,225,1.0,2.0,99,0.04,,,0.44,meteohub,2013-08-31 22:37:00,
2013-08-31 18:42:00,74.8,74.5,29.82,East,90,2.0,2.0,99,0.04,,,0.44,meteohub,2013-08-31 22:42:00,
2013-08-31 18:47:00,74.8,74.5,29.82,East,90,2.0,2.0,99,0.02,,,0.44,meteohub,2013-08-31 22:47:00,
2013-08-31 18:52:00,75.2,74.8,29.83,East,90,2.0,2.0,99,0.02,,,0.44,meteohub,2013-08-31 22:52:00,
2013-08-31 18:57:00,75.2,74.8,29.83,SE,135,2.0,2.0,99,0.02,,,0.44,meteohub,2013-08-31 22:57:00,
2013-08-31 19:02:00,75.0,74.7,29.83,West,270,1.0,2.0,99,0.02,,,0.44,meteohub,2013-08-31 23:02:00,
2013-08-31 19:07:00,74.8,74.5,29.84,SW,225,0.0,2.0,99,0.02,,,0.44,meteohub,2013-08-31 23:07:00,
2013-08-31 19:12:00,74.8,74.5,29.84,North,0,1.0,2.0,99,0.01,,,0.44,meteohub,2013-08-31 23:12:00,
2013-08-31 19:17:00,74.8,74.5,29.84,NW,315,3.0,3.0,99,0.01,,,0.44,meteohub,2013-08-31 23:17:00,
2013-08-31 19:22:00,74.7,74.3,29.84,North,0,4.0,4.0,99,0.01,,,0.44,meteohub,2013-08-31 23:22:00,
2013-08-31 19:27:00,74.5,74.1,29.84,NW,315,2.0,5.0,99,0.00,,,0.44,meteohub,2013-08-31 23:27:00,
2013-08-31 19:32:00,74.3,73.9,29.83,West,270,1.0,5.0,99,0.00,,,0.44,meteohub,2013-08-31 23:32:00,
2013-08-31 19:37:00,73.9,73.6,29.84,North,0,2.0,4.0,99,0.00,,,0.44,meteohub,2013-08-31 23:37:00,
2013-08-31 19:42:00,73.8,73.4,29.84,SW,225,0.0,4.0,99,0.00,,,0.44,meteohub,2013-08-31 23:42:00,
2013-08-31 19:47:00,73.6,73.2,29.84,South,180,1.0,4.0,99,0.00,,,0.44,meteohub,2013-08-31 23:47:00,
2013-08-31 19:52:00,73.4,73.0,29.85,SE,135,0.0,2.0,99,0.00,,,0.44,meteohub,2013-08-31 23:52:00,
2013-08-31 19:57:00,73.2,72.9,29.84,SW,225,1.0,1.0,99,0.00,,,0.44,meteohub,2013-08-31 23:57:00,
2013-08-31 20:02:00,73.2,72.9,29.84,SW,225,1.0,1.0,99,0.00,,,0.44,meteohub,2013-09-01 00:02:00,
2013-08-31 20:07:00,72.9,72.5,29.84,SW,225,0.0,1.0,99,0.00,,,0.00,meteohub,2013-09-01 00:07:00,
2013-08-31 20:12:00,72.9,72.5,29.84,SW,225,0.0,1.0,99,0.00,,,0.00,meteohub,2013-09-01 00:12:00,
2013-08-31 20:17:00,72.9,72.5,29.85,SW,225,0.0,1.0,99,0.00,,,0.00,meteohub,2013-09-01 00:17:00,
2013-08-31 20:22:00,72.9,72.5,29.84,SW,225,0.0,0.0,99,0.00,,,0.00,meteohub,2013-09-01 00:22:00,
2013-08-31 20:27:00,72.9,72.5,29.84,SW,225,0.0,0.0,99,0.00,,,0.00,meteohub,2013-09-01 00:27:00,
2013-08-31 20:32:00,72.7,72.3,29.84,SW,225,0.0,0.0,99,0.00,,,0.00,meteohub,2013-09-01 00:32:00,
2013-08-31 20:37:00,72.9,72.5,29.84,SW,225,0.0,0.0,99,0.00,,,0.00,meteohub,2013-09-01 00:37:00,
2013-08-31 20:42:00,72.9,72.5,29.85,SW,225,0.0,0.0,99,0.00,,,0.00,meteohub,2013-09-01 00:42:00,
2013-08-31 20:47:00,72.9,72.5,29.86,SW,225,1.0,0.0,99,0.00,,,0.00,meteohub,2013-09-01 00:47:00,
2013-08-31 20:52:00,73.0,72.7,29.86,SW,225,1.0,1.0,99,0.00,,,0.00,meteohub,2013-09-01 00:52:00,
2013-08-31 20:57:00,73.0,72.7,29.86,SW,225,1.0,1.0,99,0.00,,,0.00,meteohub,2013-09-01 00:57:00,
2013-08-31 21:02:00,73.0,72.7,29.86,North,0,0.0,1.0,99,0.00,,,0.00,meteohub,2013-09-01 01:02:00,
2013-08-31 21:07:00,72.9,72.5,29.87,North,0,0.0,1.0,99,0.00,,,0.00,meteohub,2013-09-01 01:07:00,
2013-08-31 21:12:00,73.0,72.7,29.87,SW,225,1.0,1.0,99,0.00,,,0.00,meteohub,2013-09-01 01:12:00,
2013-08-31 21:17:00,73.0,72.7,29.86,SW,225,0.0,1.0,99,0.00,,,0.00,meteohub,2013-09-01 01:17:00,
2013-08-31 21:22:00,73.0,72.7,29.86,SW,225,0.0,1.0,99,0.00,,,0.00,meteohub,2013-09-01 01:22:00,
2013-08-31 21:27:00,73.2,72.9,29.87,SW,225,0.0,1.0,99,0.00,,,0.00,meteohub,2013-09-01 01:27:00,
2013-08-31 21:32:00,73.2,72.9,29.86,SW,225,0.0,0.0,99,0.00,,,0.00,meteohub,2013-09-01 01:32:00,
2013-08-31 21:37:00,73.2,72.9,29.87,NW,315,1.0,1.0,99,0.00,,,0.00,meteohub,2013-09-01 01:37:00,
2013-08-31 21:42:00,73.2,72.9,29.87,NW,315,0.0,1.0,99,0.00,,,0.00,meteohub,2013-09-01 01:42:00,
2013-08-31 21:47:00,73.0,72.7,29.86,NW,315,0.0,1.0,99,0.00,,,0.00,meteohub,2013-09-01 01:47:00,
2013-08-31 21:52:00,73.4,73.0,29.86,East,90,1.0,1.0,99,0.00,,,0.00,meteohub,2013-09-01 01:52:00,
2013-08-31 21:57:00,73.4,73.0,29.86,East,90,0.0,1.0,99,0.00,,,0.00,meteohub,2013-09-01 01:57:00,
2013-08-31 22:02:00,73.4,73.0,29.86,East,90,0.0,1.0,99,0.00,,,0.00,meteohub,2013-09-01 02:02:00,
2013-08-31 22:07:00,73.4,73.0,29.86,SE,135,0.0,1.0,99,0.00,,,0.00,meteohub,2013-09-01 02:07:00,
2013-08-31 22:12:00,73.4,73.0,29.86,SE,135,0.0,0.0,99,0.00,,,0.00,meteohub,2013-09-01 02:12:00,
2013-08-31 22:17:00,73.4,73.0,29.86,SE,135,1.0,0.0,99,0.00,,,0.00,meteohub,2013-09-01 02:17:00,
2013-08-31 22:22:00,73.6,73.2,29.86,NW,315,1.0,1.0,99,0.00,,,0.00,meteohub,2013-09-01 02:22:00,
2013-08-31 22:27:00,73.6,73.2,29.86,West,270,1.0,1.0,99,0.00,,,0.00,meteohub,2013-09-01 02:27:00,
2013-08-31 22:32:00,73.6,73.2,29.86,West,270,0.0,1.0,99,0.00,,,0.00,meteohub,2013-09-01 02:32:00,
2013-08-31 22:37:00,73.6,73.2,29.86,SW,225,0.0,1.0,99,0.00,,,0.00,meteohub,2013-09-01 02:37:00,
2013-08-31 22:42:00,73.4,73.0,29.86,SW,225,0.0,1.0,99,0.00,,,0.00,meteohub,2013-09-01 02:42:00,
2013-08-31 22:47:00,73.4,73.0,29.86,SW,225,0.0,0.0,99,0.00,,,0.00,meteohub,2013-09-01 02:47:00,
2013-08-31 22:52:00,73.8,73.4,29.86,East,90,2.0,0.0,99,0.00,,,0.00,meteohub,2013-09-01 02:52:00,
2013-08-31 22:57:00,74.1,73.8,29.86,SE,135,0.0,2.0,99,0.00,,,0.00,meteohub,2013-09-01 02:57:00,
2013-08-31 23:02:00,73.9,73.6,29.86,SE,135,0.0,2.0,99,0.00,,,0.00,meteohub,2013-09-01 03:02:00,
2013-08-31 23:07:00,73.9,73.6,29.86,SE,135,0.0,2.0,99,0.00,,,0.00,meteohub,2013-09-01 03:07:00,
2013-08-31 23:12:00,73.8,73.4,29.86,SW,225,0.0,1.0,99,0.00,,,0.00,meteohub,2013-09-01 03:12:00,
2013-08-31 23:17:00,73.8,73.4,29.86,West,270,1.0,1.0,99,0.00,,,0.00,meteohub,2013-09-01 03:17:00,
2013-08-31 23:22:00,73.8,73.4,29.85,West,270,0.0,1.0,99,0.00,,,0.00,meteohub,2013-09-01 03:22:00,
2013-08-31 23:27:00,73.8,73.4,29.85,North,0,1.0,1.0,99,0.00,,,0.00,meteohub,2013-09-01 03:27:00,
2013-08-31 23:32:00,73.8,73.4,29.85,North,0,0.0,1.0,99,0.00,,,0.00,meteohub,2013-09-01 03:32:00,
2013-08-31 23:37:00,73.8,73.4,29.85,North,0,0.0,2.0,99,0.00,,,0.00,meteohub,2013-09-01 03:37:00,
2013-08-31 23:42:00,73.8,73.4,29.85,North,0,0.0,2.0,99,0.00,,,0.00,meteohub,2013-09-01 03:42:00,
2013-08-31 23:47:00,73.8,73.4,29.85,East,90,0.0,2.0,99,0.00,,,0.00,meteohub,2013-09-01 03:47:00,
2013-08-31 23:52:00,73.8,73.4,29.85,East,90,0.0,1.0,99,0.00,,,0.00,meteohub,2013-09-01 03:52:00,
2013-08-31 23:57:00,73.8,73.4,29.85,East,90,1.0,1.0,99,0.00,,,0.00,meteohub,2013-09-01 03:57:00,